Showing default

SUPERVIEW NEO-1 01, 52320

Orbit data source: Space-Track

SUPERVIEW NEO-1 01, 52320 is a payload satellite owned by Siwei (CN) in SSO that was launched on Fri, 29 Apr 2022 UTC via a CHANG ZHENG 2C launch vehicle from the Jiuquan Satellite Launch Center, China (JSC). Payload-class satellites include a variety of spacecraft equipped with specific instruments for various scientific and technological missions. These include communications satellites like Starlink; space stations such as the ISS; scientific satellites like the Hubble; Earth observation satellites from companies like Planet Labs, Umbra, and HawkEye 360; GPS; miniature CubeSats for education and research; and military/defense satellites.

Loading next visibility...
Identifier
52320, 2022-043A
Orbit
SSO
Country
Flag of CNCN / PRC
Related business
Manufacturer
DFH
Mission
Operational Commercial Imaging
Bus & Motor
SIWEI, Unknown motor
Mass
540 kg wet, ~500 kg dry
Launch date (UTC)
2022-04-29 (4 years ago)
Launch vehicle
CHANG ZHENG 2C
Launch site
Jiuquan Satellite Launch Center, China (JSC)
Object type
Payload
Rocket body
Debris
Shape & HBR
Box, 0.3 m
Radar Cross Section
0.375 m², Large (>1 m²)

Expand to show TLE details & history
Last TLE update: 16 hours ago

TLE from 16 hours ago
0 SUPERVIEW NEO-1 01
1 52320U 22043A   25348.93666069  .00004220  00000-0  23323-3 0  9994
2 52320  97.3627  62.6861 0001778 148.3929 211.7411 15.14417039201652
Epoch: 2025-12-14T22:28Z
TLE epoch observation values (Epoch: 2025-12-14T22:28:47.483Z)
Latitude
0.00004°
Longitude
1.64583°
Altitude
526.877 km
Speed
7.599 km/s
True Right ascension
04h 10m 44s
True Declination
0° 00' 00"
Sunlit
Object was in full shadow at epoch
Visualization orbit readout
Latitude
Unknown
Longitude
Unknown
Altitude
Unknown
Speed
Unknown
Apparent Right ascension
Unknown
Apparent Declination
Unknown
Sunlit
N/A
Visualization observer readout
Local Sidereal Time
13:26:09
Azimuth
Unknown
Elevation
Unknown
Doppler factor
Unknown
Orbital elements
Apogee altitude
520.947 km
Perigee altitude
518.494 km
Semi-major axis
6,897.857 km
Eccentricity
0.00018
Inclination
97.3627°
RAAN
62.6861°
Arg. of periapsis
148.3929°
True anomaly
211.73038°
Mean anomaly
211.7411°
Eccentric anomaly
211.73574°
Mean motion
3.78854 °/min
Orbital period
95.02 mins
BSTAR
0.00023323
Loading maneuver chart data...
Computing Atmospheric mass density...
Loading historical data...
Loading historical data...
Loading historical data...
Loading historical data...
Loading historical data...
Loading historical data...
Loading historical data...

Documentation

Showing up to 5 results
|